When you browse on this site, cookies collect data to enhance your experience and personalize the content and advertising you see.
Visit our Privacy Policy to learn more. By continuing to use the site, you agree to this use of cookies and data.
  • In Hungary
  • List of Countries
  • For 7 days
  • Water Temperature
  • Weather Map
  • News
  • Weather Widgets
  • user-avatar
    Login

    Hourly Weather Akra

    Today, 27 May, Wednesday

    Time Temperature Precipitation Wind Pressure Humidity
    00:00 +28°C° 0 mm 4 mps 758 mmHg 83%
    01:00 +28°C° 0.5 mm 4 mps 758 mmHg 84%
    02:00 +28°C° 0.5 mm 4 mps 757 mmHg 85%
    03:00 +28°C° 0.5 mm 4 mps 757 mmHg 86%
    04:00 +27°C° 0.3 mm 4 mps 757 mmHg 87%
    05:00 +27°C° 0.3 mm 4 mps 757 mmHg 87%
    06:00 +27°C° 0 mm 5 mps 758 mmHg 88%
    07:00 +29°C° 0.1 mm 4 mps 758 mmHg 82%
    08:00 +30°C° 0.1 mm 4 mps 758 mmHg 75%
    09:00 +33°C° 0.1 mm 4 mps 759 mmHg 68%
    10:00 +34°C° 0.3 mm 4 mps 758 mmHg 65%
    11:00 +35°C° 0.3 mm 3 mps 758 mmHg 61%
    12:00 +36°C° 0.3 mm 3 mps 758 mmHg 58%
    13:00 +35°C° 0.8 mm 4 mps 757 mmHg 59%
    14:00 +35°C° 0.8 mm 5 mps 756 mmHg 61%
    15:00 +34°C° 0.8 mm 6 mps 755 mmHg 63%
    16:00 +33°C° 0.1 mm 6 mps 756 mmHg 68%
    17:00 +32°C° 0.1 mm 6 mps 756 mmHg 73%
    18:00 +30°C° 0.1 mm 6 mps 757 mmHg 77%
    19:00 +30°C° 0 mm 5 mps 757 mmHg 80%
    20:00 +29°C° 0 mm 5 mps 758 mmHg 82%
    21:00 +29°C° 0 mm 4 mps 758 mmHg 84%
    22:00 +29°C° 0 mm 4 mps 758 mmHg 85%
    23:00 +28°C° 0 mm 4 mps 758 mmHg 86%

    Tomorrow, 28 May, Thursday

    Time Temperature Precipitation Wind Pressure Humidity
    00:00 +28°C° 0 mm 4 mps 758 mmHg 88%
    01:00 +28°C° 0 mm 4 mps 758 mmHg 89%
    02:00 +28°C° 0 mm 4 mps 757 mmHg 89%
    03:00 +28°C° 0 mm 4 mps 757 mmHg 90%
    04:00 +27°C° 0 mm 4 mps 757 mmHg 90%
    05:00 +27°C° 0 mm 4 mps 757 mmHg 89%
    06:00 +27°C° 0 mm 4 mps 757 mmHg 89%
    07:00 +29°C° 0 mm 4 mps 758 mmHg 83%
    08:00 +30°C° 0 mm 4 mps 758 mmHg 78%
    09:00 +32°C° 0 mm 5 mps 759 mmHg 72%
    10:00 +33°C° 0 mm 4 mps 758 mmHg 67%
    11:00 +34°C° 0 mm 4 mps 758 mmHg 62%
    12:00 +36°C° 0 mm 4 mps 757 mmHg 57%
    13:00 +36°C° 0 mm 5 mps 756 mmHg 58%
    14:00 +35°C° 0 mm 5 mps 756 mmHg 59%
    15:00 +35°C° 0 mm 6 mps 755 mmHg 60%
    16:00 +34°C° 0.2 mm 6 mps 755 mmHg 66%
    17:00 +33°C° 0.2 mm 6 mps 756 mmHg 72%
    18:00 +30°C° 0.2 mm 6 mps 756 mmHg 77%
    19:00 +30°C° 0.4 mm 6 mps 756 mmHg 79%
    20:00 +30°C° 0.4 mm 6 mps 757 mmHg 81%
    21:00 +29°C° 0.4 mm 6 mps 757 mmHg 82%
    22:00 +29°C° 0.6 mm 6 mps 757 mmHg 83%
    23:00 +29°C° 0.6 mm 5 mps 757 mmHg 84%

    Day after tomorrow, 29 May, Friday

    Time Temperature Precipitation Wind Pressure Humidity
    00:00 +28°C° 0.6 mm 5 mps 757 mmHg 85%
    01:00 +28°C° 0.2 mm 5 mps 757 mmHg 86%
    02:00 +28°C° 0.2 mm 4 mps 757 mmHg 86%
    03:00 +28°C° 0.2 mm 4 mps 756 mmHg 87%
    04:00 +27°C° 0.8 mm 4 mps 756 mmHg 87%
    05:00 +27°C° 0.8 mm 3 mps 757 mmHg 87%
    06:00 +27°C° 0.8 mm 2 mps 757 mmHg 87%
    07:00 +28°C° 0.7 mm 3 mps 757 mmHg 86%
    08:00 +28°C° 0.7 mm 4 mps 758 mmHg 85%
    09:00 +28°C° 0.7 mm 5 mps 758 mmHg 84%
    10:00 +29°C° 0 mm 5 mps 757 mmHg 82%
    11:00 +30°C° 0 mm 5 mps 757 mmHg 79%
    12:00 +30°C° 0 mm 5 mps 757 mmHg 77%
    13:00 +32°C° 0 mm 5 mps 756 mmHg 74%
    14:00 +32°C° 0 mm 5 mps 756 mmHg 72%
    15:00 +33°C° 0 mm 5 mps 756 mmHg 69%
    16:00 +32°C° 0 mm 5 mps 756 mmHg 73%
    17:00 +30°C° 0 mm 4 mps 756 mmHg 76%
    18:00 +29°C° 0 mm 4 mps 756 mmHg 80%
    19:00 +29°C° 0.3 mm 4 mps 756 mmHg 81%
    20:00 +29°C° 0.3 mm 4 mps 757 mmHg 83%
    21:00 +28°C° 0.3 mm 4 mps 758 mmHg 85%
    22:00 +28°C° 0.8 mm 4 mps 758 mmHg 86%
    23:00 +28°C° 0.8 mm 3 mps 758 mmHg 86%

    30 May, Saturday

    Time Temperature Precipitation Wind Pressure Humidity
    00:00 +28°C° 0.8 mm 3 mps 758 mmHg 87%
    01:00 +28°C° 0.3 mm 3 mps 757 mmHg 87%
    02:00 +28°C° 0.3 mm 3 mps 757 mmHg 86%
    03:00 +28°C° 0.3 mm 2 mps 756 mmHg 86%
    04:00 +28°C° 0.1 mm 2 mps 757 mmHg 86%
    05:00 +28°C° 0.1 mm 2 mps 757 mmHg 87%
    06:00 +28°C° 0.1 mm 2 mps 757 mmHg 87%
    07:00 +28°C° 0 mm 2 mps 757 mmHg 83%
    08:00 +29°C° 0 mm 1 mps 757 mmHg 79%
    09:00 +30°C° 0 mm 1 mps 758 mmHg 75%
    10:00 +30°C° 0 mm 2 mps 757 mmHg 72%
    11:00 +31°C° 0 mm 2 mps 757 mmHg 68%
    12:00 +33°C° 0 mm 3 mps 757 mmHg 65%
    13:00 +31°C° 0 mm 3 mps 757 mmHg 68%
    14:00 +30°C° 0 mm 3 mps 756 mmHg 72%
    15:00 +30°C° 0 mm 3 mps 756 mmHg 75%
    16:00 +29°C° 0 mm 3 mps 756 mmHg 76%
    17:00 +29°C° 0 mm 3 mps 756 mmHg 77%
    18:00 +29°C° 0 mm 3 mps 756 mmHg 78%
    19:00 +29°C° 0 mm 4 mps 757 mmHg 80%
    20:00 +29°C° 0 mm 4 mps 757 mmHg 82%
    21:00 +28°C° 0 mm 4 mps 758 mmHg 84%
    22:00 +28°C° 0 mm 4 mps 757 mmHg 84%
    23:00 +28°C° 0 mm 4 mps 757 mmHg 85%

    31 May, Sunday

    Time Temperature Precipitation Wind Pressure Humidity
    00:00 +28°C° 0 mm 3 mps 757 mmHg 86%
    01:00 +28°C° 0 mm 3 mps 757 mmHg 86%
    02:00 +28°C° 0 mm 3 mps 756 mmHg 87%
    03:00 +28°C° 0 mm 2 mps 756 mmHg 87%
    04:00 +28°C° 0.1 mm 2 mps 756 mmHg 88%
    05:00 +28°C° 0.1 mm 2 mps 757 mmHg 88%
    06:00 +28°C° 0.1 mm 2 mps 757 mmHg 89%
    07:00 +29°C° 0.2 mm 2 mps 758 mmHg 83%
    08:00 +30°C° 0.2 mm 1 mps 758 mmHg 78%
    09:00 +31°C° 0.2 mm 1 mps 758 mmHg 73%
    10:00 +32°C° 0 mm 2 mps 758 mmHg 67%
    11:00 +34°C° 0 mm 2 mps 758 mmHg 62%
    12:00 +35°C° 0 mm 2 mps 758 mmHg 57%
    13:00 +35°C° 0 mm 3 mps 757 mmHg 57%
    14:00 +35°C° 0 mm 3 mps 756 mmHg 58%
    15:00 +35°C° 0 mm 3 mps 756 mmHg 58%
    16:00 +34°C° 0 mm 3 mps 756 mmHg 64%
    17:00 +33°C° 0 mm 3 mps 756 mmHg 69%
    18:00 +30°C° 0 mm 3 mps 756 mmHg 74%
    19:00 +30°C° 0 mm 3 mps 757 mmHg 76%
    20:00 +30°C° 0 mm 3 mps 757 mmHg 78%
    21:00 +29°C° 0 mm 3 mps 757 mmHg 79%
    22:00 +29°C° 0 mm 3 mps 757 mmHg 81%
    23:00 +29°C° 0 mm 2 mps 757 mmHg 82%

    1 June, Monday

    Time Temperature Precipitation Wind Pressure Humidity
    00:00 +29°C° 0 mm 2 mps 757 mmHg 84%
    01:00 +28°C° 0 mm 2 mps 757 mmHg 85%
    02:00 +28°C° 0 mm 2 mps 757 mmHg 86%
    03:00 +28°C° 0 mm 2 mps 757 mmHg 86%
    04:00 +28°C° 0 mm 1 mps 757 mmHg 87%
    05:00 +28°C° 0 mm 1 mps 757 mmHg 87%
    06:00 +28°C° 0 mm 1 mps 757 mmHg 87%
    07:00 +29°C° 0 mm 2 mps 758 mmHg 80%
    08:00 +31°C° 0 mm 2 mps 758 mmHg 73%
    09:00 +32°C° 0 mm 2 mps 758 mmHg 66%
    10:00 +34°C° 0 mm 3 mps 758 mmHg 63%
    11:00 +35°C° 0 mm 4 mps 758 mmHg 60%
    12:00 +36°C° 0 mm 5 mps 757 mmHg 57%
    13:00 +35°C° 0 mm 5 mps 757 mmHg 59%
    14:00 +35°C° 0 mm 5 mps 756 mmHg 62%
    15:00 +34°C° 0 mm 6 mps 755 mmHg 64%
    16:00 +33°C° 0 mm 6 mps 756 mmHg 69%
    17:00 +32°C° 0 mm 5 mps 756 mmHg 73%
    18:00 +30°C° 0 mm 5 mps 756 mmHg 77%
    19:00 +30°C° 0 mm 5 mps 757 mmHg 79%
    20:00 +29°C° 0 mm 5 mps 757 mmHg 81%
    21:00 +29°C° 0 mm 5 mps 757 mmHg 83%
    22:00 +29°C° 0 mm 5 mps 757 mmHg 82%
    23:00 +29°C° 0 mm 4 mps 758 mmHg 82%
    Show more